This is the latest recevied weather packets stored in our database for station/object KC7UNY-13. If no packets are shown the sender has not sent any weather packets the latest 1 day(s).
| Time | Temp. | Humidity | Pressure | Rain* | Wind** | Luminosity | Snow |
|---|---|---|---|---|---|---|---|
| 1778062607 | 13.89° C | 59% | 1014.1 hPa | 0 mm | - | 0 W/m² | - |
| 1778062304 | 13.89° C | 58% | 1013.9 hPa | 0 mm | - | 0 W/m² | - |
| 1778062002 | 13.89° C | 57% | 1013.7 hPa | 0 mm | - | 0 W/m² | - |
| 1778061700 | 14.44° C | 56% | 1014 hPa | 0 mm | - | 0 W/m² | - |
| 1778061398 | 14.44° C | 56% | 1013.7 hPa | 0 mm | - | 0 W/m² | - |
| 1778060792 | 13.89° C | 58% | 1013.8 hPa | 0 mm | - | 0 W/m² | - |
| 1778060490 | 14.44° C | 56% | 1013.8 hPa | 0 mm | - | 0 W/m² | - |
| 1778060188 | 14.44° C | 56% | 1013.7 hPa | 0 mm | - | 0 W/m² | - |
| 1778059885 | 14.44° C | 57% | 1013.7 hPa | 0 mm | - | 0 W/m² | - |
| 1778059583 | 13.89° C | 57% | 1013.8 hPa | 0 mm | - | 0 W/m² | - |
| 1778058373 | 14.44° C | 56% | 1013.6 hPa | 0 mm | - | 0 W/m² | - |
| 1778057462 | 14.44° C | 57% | 1013.7 hPa | 0 mm | - | 0 W/m² | - |
| 1778057159 | 15° C | 56% | 1013.5 hPa | 0 mm | - | 0 W/m² | - |
| 1778056855 | 14.44° C | 55% | 1013.5 hPa | 0 mm | - | 0 W/m² | - |
| 1778055642 | 14.44° C | 56% | 1013.5 hPa | 0 mm | - | 0 W/m² | - |
| 1778054432 | 15° C | 53% | 1013.5 hPa | 0 mm | - | 0 W/m² | - |
| 1778054130 | 15° C | 53% | 1013.4 hPa | 0 mm | - | 0 W/m² | - |
| 1778053524 | 15° C | 53% | 1013.6 hPa | 0 mm | - | 0 W/m² | - |
| 1778053221 | 15° C | 51% | 1013.6 hPa | 0 mm | - | 0 W/m² | - |
| 1778050799 | 16.11° C | 49% | 1013.3 hPa | 0 mm | - | 0 W/m² | - |
| 1778050497 | 16.11° C | 47% | 1013.3 hPa | 0 mm | - | 0 W/m² | - |
| 1778049890 | 16.67° C | 44% | 1013.4 hPa | 0 mm | - | 0 W/m² | - |
| 1778049586 | 16.67° C | 44% | 1013.4 hPa | 0 mm | - | 0 W/m² | - |
| 1778048981 | 17.22° C | 45% | 1013.2 hPa | 0 mm | - | 0 W/m² | - |
| 1778048072 | 17.22° C | 43% | 1013.2 hPa | 0 mm | - | 0 W/m² | - |
* Rain latest hour (hover to see other rain measurements)
** Current wind speed in m/s (hover to see current wind gust speed)